Home > Time Zones > World Clock > Weather > Canada > Ajax > Past weeks

Flag for Canada Weather past 2 weeks in Ajax, Ontario, Canada

Now
36 °F

Light snow. Overcast.


Feels Like: 27 °F
Forecast: 33 / 42 °F
Wind: 12 mph from Southwest

Location: Toronto Buttonville

Current Time: Mar 30, 2015 at 4:08:36 AM

Latest Report: Mar 30, 2015 at 3:00 AM


Visibility: 10 mi

Pressure: 29.60 "Hg

Humidity: 93%

Dew point: 34 °F

Location of AjaxLocation

Historic Weather in Ajax — Graph

°F

Ajax temperature yesterday

Maximum temperature yesterday: 41 °F (at 3:00 PM)
Minimum temperature yesterday: 14 °F (at 7:00 AM)
Average temperature yesterday: 29 °F

Past Weeks' High & Low Weather Summary

 TemperatureHumidityPressure
High50 °F (Mar 16, 4:00 PM)100% (Mar 17, 12:00 AM)30.43 "Hg (Mar 17, 12:00 AM)
Low10 °F (Mar 23, 7:00 AM)25% (Mar 19, 2:00 PM)29.60 "Hg (Mar 30, 3:00 AM)
Average29 °F63%30.10 "Hg
* Reported Mar 15 3:00 AM — Mar 30 3:00 AM, Ajax, Weather by CustomWeather, © 2015

Note: Actual official high and low records may vary slightly from our data, if they occured in-between our weather recording intervals... More about our weather records

Advertising

Ajax weather history for previous 24 hours

 ConditionsComfort  
Time TempWeatherWind HumidityBarometerVisibility
3:00 AM
Mon, Mar 30
36 °FLight snow. Overcast.12 mph93%29.60 "Hg10 mi
2:00 AM36 °FLight snow. Overcast.10 mph81%29.65 "Hg10 mi
1:00 AM36 °FOvercast.13 mph70%29.70 "Hg15 mi
12:00 AM36 °FOvercast.12 mph75%29.76 "Hg15 mi
11:00 PM
Sun, Mar 29
36 °FMostly cloudy.13 mph81%29.81 "Hg15 mi
10:00 PM34 °FLight snow. Overcast.14 mph81%29.88 "Hg7 mi
9:00 PM37 °FOvercast.13 mph45%29.88 "Hg15 mi
8:00 PM37 °FOvercast.10 mph45%29.88 "Hg15 mi
7:00 PM37 °FOvercast.9 mph45%29.92 "Hg15 mi
6:00 PM37 °FOvercast.16 mph41%29.95 "Hg15 mi
5:00 PM37 °FPartly sunny.16 mph41%30.00 "Hg15 mi
4:00 PM37 °FPartly sunny.22 mph41%30.04 "Hg15 mi
3:00 PM41 °FPassing clouds.15 mph36%30.09 "Hg15 mi
2:00 PM39 °FPassing clouds.16 mph42%30.14 "Hg15 mi
1:00 PM37 °FPassing clouds.14 mph45%30.19 "Hg15 mi
12:00 PM37 °FScattered clouds.10 mph35%30.22 "Hg15 mi
11:00 AM30 °FPassing clouds.6 mph51%30.25 "Hg15 mi
10:00 AM28 °FPassing clouds.6 mph55%30.28 "Hg15 mi
9:00 AM25 °FPassing clouds.6 mph63%30.29 "Hg15 mi
8:00 AM19 °FPassing clouds.2 mph73%30.29 "Hg15 mi
7:00 AM14 °FPassing clouds.No wind85%30.28 "Hg15 mi
6:00 AM18 °FClear.3 mph73%30.28 "Hg15 mi
5:00 AM18 °FClear.3 mph68%30.27 "Hg15 mi
4:00 AM18 °FClear.2 mph68%30.27 "Hg15 mi
Weather by CustomWeather, © 2015

See weather overviewHow to use our weather pages